weather.gov     
National Weather Service

Regional Weather Roundup
NWS Homepage
This page is being discontinued on March 12, 2014.
The same data is available at this site. Please update your bookmarks.
Thank you, and we apologize for the inconvenience.
Please send an email to SR-SRH.Webmaster@noaa.gov with any concerns.


Current Version
Previous Version:    01  02  03  04  05  06  07  08  09  10  11  12  13  14  15  16  17  18  19  20  21  22  23  24  25  26  27  28  29  30  
   31  32  33  34  35  36  37  38  39  40  41  42  43  44  45  46  47  48  49  50  51  52  53  54  55  56  57  58  59  60  
[Printable]
223
ASUS44 KOUN 162110
RWROK

WEATHER ROUNDUP FOR OKLAHOMA
NATIONAL WEATHER SERVICE NORMAN OK
400 PM CDT TUE SEP 16 2014

NOTE: "FAIR" INDICATES FEW OR NO CLOUDS BELOW 12,000 FEET WITH NO
      SIGNIFICANT WEATHER AND/OR OBSTRUCTIONS TO VISIBILITY.

OKZ001>007-009>012-014-015-017-162200-
NORTHWEST OKLAHOMA AND THE PANHANDLE

CITY           SKY/WX    TMP DP  RH WIND       PRES   REMARKS
GAGE           SUNNY     85  63  47 SW13      30.06F
ENID/WOODRING  PTSUNNY   82  64  54 E6        30.05F
$$

OKZ016-021>023-033>039-044-045-162200-
SOUTHWEST OKLAHOMA

CITY           SKY/WX    TMP DP  RH WIND       PRES   REMARKS
LAWTON/REGL    PTSUNNY   89  65  44 S12       30.02F HX  91
LAWTON/FT SILL MOSUNNY   88  68  51 S6        30.02F HX  91
FREDERICK      PTSUNNY   87  66  49 S7        30.01F
CLINTON        MOSUNNY   87  63  44 VRB5      30.07F
HOBART         MOSUNNY   89  64  43 SW9       30.04F HX  90
ALTUS AFB      PTSUNNY   89  68  49 S8        30.04F HX  92
$$

OKZ018>020-024>031-162200-
CENTRAL OKLAHOMA

CITY           SKY/WX    TMP DP  RH WIND       PRES   REMARKS
OKLAHOMA CITY  PTSUNNY   88  68  51 CALM      30.04F HX  91
OKC/WILEY POST LGT RAIN  86  70  58 VRB6      30.04F HX  90
OKC/TINKER AFB MOSUNNY   85  71  64 NE8       30.04F HX  90
STILLWATER     PTSUNNY   81  67  62 E7        30.06F
GUTHRIE        MOSUNNY   83  68  60 NE6       30.05F
$$

OKZ008-013-054>072-162200-
NORTHEAST OKLAHOMA

CITY           SKY/WX    TMP DP  RH WIND       PRES   REMARKS
TULSA          CLOUDY    74  63  68 CALM      30.07F
TULSA/JONES    CLOUDY    76  64  66 N3        30.07F
PONCA CITY     CLOUDY    74  63  68 E6        30.07F
BARTLESVILLE   CLOUDY    72  64  76 CALM      30.09F
MUSKOGEE       SUNNY     80  69  69 NW8       30.07F
$$

OKZ032-040>043-046>053-073>077-162200-
SOUTH CENTRAL/SOUTHEAST OKLAHOMA

CITY           SKY/WX    TMP DP  RH WIND       PRES   REMARKS
ARDMORE/DWNTWN MOSUNNY   86  66  51 S7        30.04F
MCALESTER      MOSUNNY   88  68  51 SW5       30.03F HX  91
$$





U.S. Dept. of Commerce
NOAA National Weather Service
1325 East West Highway
Silver Spring, MD 20910
E-mail: w-nws.webmaster@noaa.gov
Page last modified: May 16, 2007
NATIONAL WEATHER SERVICE: for Safety, for Work, for Fun - FOR LIFE